Погода Большеречье

Погода Большеречье : погода сейчас, прогноз погоды и архив. Всё, что Вы хотите узнать о погоде Большеречье!

Хотите узнать прогноз погоды Большеречье? Тогда Вам сюда: Погода Большеречье

Поиск расширенной информации на нашем сайте:

Другие новости

Новости СМИ2

Главная страница сайта

Новости сайта

03.07.2017

Напоминаем, что на нашем специализированном сайте Метеоцентр.Азия вы можете получить высокодетализированные автоматические прогнозы погоды по пунктам России, СНГ и мира в авиационном формате (включающие направление и скорость ветра, видимость, явления погоды, количество и форму облачности, нижнюю и верхнюю границу облачности).


Погода Большеречье - сегодня

Время (UTC), дата Ветер
(°,м/с) 
Видим.   Явления Облачность Т
(°С)
Тd
(°С)
f(%) Тe
(°С)
Pmin
(гПа)
dP
(гПа)
Po
(мм)
O2
(г/м3)
Тmin Tmax R s Состояние
почвы
06 11.11.18 330 (СЗ) 10 км  слаб. ливневой снег  9/8 600 м кучево-дожд., средняя 
[Cb calv|Ac trans]
-15 -18.5 75 -19  1032.3  1.9  767  328           
09 11.11.18 330 (СЗ) 20000 м  {ливн. осадки}  8/8 600 м кучево-дожд. 
[Cb calv]
-13.5 -18.1 68 -17  1033.5  1.2  767  327           
12 11.11.18 240 (ЮЗ) 10 км  {ливн. осадки}  1/0 верхняя 
[Ci fib]
-16.8 -19.5 80 -17  1034.4  0.7  768  331           
18 11.11.18 210 (ЮЗ) 4000 м  слаб. ливневой снег  10/10 600 м кучево-дожд. 
[Cb calv]
-12.8 -16.1 76 -17  1032.7  -1.6  767  326           
21 11.11.18 220 (ЮЗ) 4000 м  слаб. ливневой снег  10/10 600 м кучево-дожд. 
[Cb calv]
-10.6 -13.1 82 -15  1031.2  -1.4  766  322           
03 12.11.18 230 (ЮЗ) 4{10}  20000 м  {ливн. осадки}  8/3 600 м кучево-дожд., средняя, верхняя 
[Cb calv|Ac cast|Cs]
-11.1 -14.1 78 -15  1028.8  -1.4  764  322  -15.4    0.2  12  равномерный
сухой снег
100% 
15 12.11.18 270 (З) 10 км    10/10 600 м кучево-дожд. 
[Cb calv]
-8.1 -12.2 72 -12  1025.4  -0.2  762  317    -7.9       
18 12.11.18 240 (ЮЗ) 4000 м  слаб. ливневой снег  10/10 600 м кучево-дожд. 
[Cb calv]
-8 -11.3 77 -11  1025  -0.4  761  317           
21 12.11.18 260 (З) 4000 м  слаб. ливневой снег  10/10 600 м кучево-дожд. 
[Cb calv]
-7.4 -10.9 76 -10  1025.6  0.6  762  317           
00 13.11.18 280 (З) 4000 м  слаб. ливневой снег  10/10 600 м кучево-дожд. 
[Cb calv]
-7.1 -10.5 77 -10  1026.3  0.7  762  316           
03 13.11.18 300 (СЗ) 10 км  слаб. ливневой снег  10/10 600 м кучево-дожд. 
[Cb calv]
-6.9 -9.7 80 -10  1027.8  1.5  763  317  -8.2    0.2  12  равномерный
сухой снег
100% 
06 13.11.18 330 (СЗ) 20000 м  {ливн. осадки}  10/10 600 м кучево-дожд. 
[Cb calv]
-5.7 -9 78 -9  1029.1  1.4  764  316           
09 13.11.18 300 (СЗ) 20000 м    10/10 600 м кучево-дожд. 
[Cb calv]
-4.8 -7.8 79 -6  1030.4  1.2  765  315           
12 13.11.18 260 (З) 10 км    10/10 600 м кучево-дожд. 
[Cb calv]
-4.4 -7.2 81 -6  1031.9  1.5  767  315           
18 13.11.18 200 (Ю) 10 км    10/10 600 м кучево-дожд. 
[Cb calv]
-4.1 -6.7 82 -7  1031.7  -0.5  766  314           
21 13.11.18 200 (Ю) 10 км    10/10 600 м кучево-дожд. 
[Cb calv]
-4.2 -6.8 82 -7  1030.8  -0.9  766  314           
00 14.11.18 200 (Ю) 10 км    10/10 600 м кучево-дожд. 
[Cb calv]
-4.2 -6.9 81 -8  1029.7  -1.1  765  314           
03 14.11.18 210 (ЮЗ) 20000 м    10/4 600 м кучево-дожд., средняя, верхняя 
[Cb calv|Ac trans|Cs]
-4.8 -7.7 80 -8  1029.4  -0.3  765  314  -4.8      11  равномерный
сухой снег
100% 
09 14.11.18 210 (ЮЗ) 20000 м  позёмок  8/0 верхняя 
[Cs]
-5.1 -11.8 59 -9  1027.4  -1.1  763  314           
12 14.11.18 210 (ЮЗ) 10 км    8/0 верхняя 
[Cs]
-7.4 -13 64 -12  1027  -0.5  763  317           
15 14.11.18 210 (ЮЗ) 10 км    4/0 верхняя 
[Cs]
-8.2 -12.9 69 -13  1025.7  -1.3  762  318    -4.8       
18 14.11.18 220 (ЮЗ) 10 км    8/0 средняя 
[Ac trans]
-6.5 -12.1 64 -10  1024.6  -1  761  315           
21 14.11.18 240 (ЮЗ) 10 км    9/0 средняя 
[Ac trans]
-5 -11.6 60 -8  1024.5  0.1  761  313           
00 15.11.18 240 (ЮЗ) 10 км    9/0 средняя 
[Ac trans]
-3.7 -10.7 58 -6  1025  0.6  761  312           
03 15.11.18 250 (З) 20000 м    10/0 средняя 
[Ac As]
-2.6 -10.2 56 -5  1026.5  1.5  763  311  -8.5      11  равномерный
сухой снег
100% 
Время (UTC), дата Ветер
(°,м/с) 
Видим.   Явления Облачность Т
(°С)
Тd
(°С)
f(%) Тe
(°С)
Pmin
(гПа)
dP
(гПа)
Po
(мм)
O2
(г/м3)
Тmin Tmax R s Состояние
почвы

Для получения пояснительной информации подведите курсор к названию столбца.

ПОГОДА Большеречье - архив

Всё, что Вы хотите узнать о погоде Большеречье - удобно и подробно!

Выберите нужную дату (начиная с 1 января 2015* года) и нажмите кнопку "Найти".
Будут отображены архивные сводки погоды по пункту Большеречье, начиная с указанной даты.


Отображать данные в формате CSV (для использования в таблицах Excel)


Внимание! Наш архив погоды предназначен исключительно для личного некоммерческого использования в познавательных целях. Если Вам необходимы официальные справки о состоянии погоды (для производственных, юридических, коммерческих и т.п. целей), обращайтесь в органы Росгидромета.

*Примечание: данная дата относится к архиву по метеостанциям СССР (Россия, СНГ, Балтия).
Архив по метеостанциям Зарубежной Европы и Азии (кроме Китая) хранится 10 дней, по другим регионам земного шара (Китай, Африка, Америка, Австралия, Океания) - 1 день.

Большеречье - район местоположения метеостанции


Название, широта, долгота, высота метеостанции:
Большеречье 56.1°ш. 74.6°д. 77 м над ур. моря [Российская Федерация]

Дополнительная информация

В oтличие oт бoльшинства пoгoдных сайтoв мы публикуем пoдрoбную метеoинфoрмацию в детальнoм прoфессиoнальнoм фoрмате.

Характеристики температуры и влажнoсти вoздуха измеряются на высoте 2 м в тени вдали oт зданий и деревьев.
Скoрoсть ветра измеряется на высoте 10 м (на урoвне рoста челoвека скoрoсть ветра ниже в 1.5-2 раза). Если метеoстанция нахoдится в гoрoде или в лесу, тo скoрoсть ветра занижена на 2-4 м/с пo сравнению с oткрытым местoм. Скoрoсть ветра над акватoриями крупных рек и oзёр, а также на вершинах хoлмoв на 2-5 м/с выше, чем в oбычных услoвиях.
Атмoсфернoе давление в разных тoчках местнoсти мoжет значительнo oтличаться oт давления на метеoстанции, в зависимoсти oт услoвий рельефа (при пoдъёме на 10 м давление пoнижается примернo на 1 мм рт.ст.).